Showing default

PAKTES 1A, 43529

Orbit data source: Space-Track

PAKTES 1A, 43529 is a payload satellite owned by SUPARCO (PK) in SSO that was launched on Mon, 09 Jul 2018 UTC via a CHANG ZHENG 2C launch vehicle from the Jiuquan Satellite Launch Center, China (JSC). Payload-class satellites include a variety of spacecraft equipped with specific instruments for various scientific and technological missions. These include communications satellites like Starlink; space stations such as the ISS; scientific satellites like the Hubble; Earth observation satellites from companies like Planet Labs, Umbra, and HawkEye 360; GPS; miniature CubeSats for education and research; and military/defense satellites.

Loading next visibility...
Identifier
43529, 2018-056A
Orbit
SSO
Country
Flag of UnknownUnknown / PAKI
Related business
Manufacturer
SUPARCO
Mission
Operational Civil Imaging
Bus & Motor
PAKTES, Unknown motor
Mass
285 kg wet, 285 kg dry
Launch date (UTC)
2018-07-09 (7 years ago)
Launch vehicle
CHANG ZHENG 2C
Launch site
Jiuquan Satellite Launch Center, China (JSC)
Object type
Payload
Rocket body
Debris
Shape & HBR
Box + 1 Pan, 2.0 m
Radar Cross Section
5.935 m², Large (>1 m²)

Expand to show TLE details & history
Last TLE update: 9 hours ago

TLE from 9 hours ago
0 PAKTES 1A
1 43529U 18056A   25297.94337300  .00005487  00000-0  47281-3 0  9996
2 43529  98.0981  80.1354 0022236 169.0256 191.1455 14.97577808396690
Epoch: 2025-10-24T22:38Z
TLE epoch observation values (Epoch: 2025-10-24T22:38:27.427Z)
Latitude
0.00004°
Longitude
66.94009°
Altitude
592.595 km
Speed
7.555 km/s
True Right ascension
05h 20m 32s
True Declination
0° 00' 00"
Sunlit
Object was in full shadow at epoch
Visualization orbit readout
Latitude
Unknown
Longitude
Unknown
Altitude
Unknown
Speed
Unknown
Apparent Right ascension
Unknown
Apparent Declination
Unknown
Sunlit
N/A
Visualization observer readout
Local Sidereal Time
02:59:14
Azimuth
Unknown
Elevation
Unknown
Doppler factor
Unknown
Orbital elements
Apogee altitude
586.862 km
Perigee altitude
555.956 km
Semi-major axis
6,949.546 km
Eccentricity
0.00222
Inclination
98.0981°
RAAN
80.1354°
Arg. of periapsis
169.0256°
True anomaly
191.09638°
Mean anomaly
191.1455°
Eccentric anomaly
191.12093°
Mean motion
3.74635 °/min
Orbital period
96.09 mins
BSTAR
0.00047281
Loading maneuver chart data...
Computing Atmospheric mass density...
Loading historical data...
Loading historical data...
Loading historical data...
Loading historical data...
Loading historical data...
Loading historical data...
Loading historical data...

Documentation

Showing up to 5 results
|